When you browse on this site, cookies collect data to enhance your experience and personalize the content and advertising you see.
Visit our Privacy Policy to learn more. By continuing to use the site, you agree to this use of cookies and data.
  • In Österreich
  • Länderverzeichnis
  • Für 7 Tage
  • Wassertemperatur
  • Wetterkarte
  • News
  • Widgets
  • user-avatar
    Anmelden

    Stündliche Wetter Sucre

    Heute, 23 Januar, Donnerstag

    Zeit Temperatur Niederschläge Wind Luftdruck Luftfeuchtigkeit
    00:00 +16°C° 0.1 mm 1 m/S 543 mmHg 68%
    01:00 +15°C° 0.1 mm 1 m/S 542 mmHg 69%
    02:00 +15°C° 0.1 mm 1 m/S 542 mmHg 70%
    03:00 +15°C° 0.4 mm 1 m/S 542 mmHg 74%
    04:00 +14°C° 0.4 mm 1 m/S 541 mmHg 77%
    05:00 +14°C° 0.4 mm 1 m/S 541 mmHg 81%
    06:00 +14°C° 0.1 mm 1 m/S 541 mmHg 80%
    07:00 +14°C° 0.1 mm 1 m/S 542 mmHg 79%
    08:00 +14°C° 0.1 mm 1 m/S 542 mmHg 78%
    09:00 +16°C° 0.1 mm 1 m/S 543 mmHg 73%
    10:00 +18°C° 0.1 mm 1 m/S 543 mmHg 69%
    11:00 +18°C° 0.1 mm 2 m/S 543 mmHg 64%
    12:00 +19°C° 0.3 mm 2 m/S 543 mmHg 62%
    13:00 +19°C° 0.3 mm 2 m/S 543 mmHg 59%
    14:00 +20°C° 0.3 mm 3 m/S 543 mmHg 57%
    15:00 +20°C° 0.2 mm 4 m/S 542 mmHg 58%
    16:00 +19°C° 0.2 mm 4 m/S 541 mmHg 60%
    17:00 +19°C° 0.2 mm 5 m/S 541 mmHg 61%
    18:00 +18°C° 0.1 mm 4 m/S 541 mmHg 64%
    19:00 +17°C° 0.1 mm 3 m/S 541 mmHg 67%
    20:00 +16°C° 0.1 mm 2 m/S 541 mmHg 70%
    21:00 +16°C° 0 mm 2 m/S 542 mmHg 71%
    22:00 +15°C° 0 mm 2 m/S 542 mmHg 72%
    23:00 +15°C° 0 mm 2 m/S 542 mmHg 73%

    Morgen, 24 Januar, Freitag

    Zeit Temperatur Niederschläge Wind Luftdruck Luftfeuchtigkeit
    00:00 +15°C° 0 mm 2 m/S 542 mmHg 74%
    01:00 +15°C° 0 mm 2 m/S 542 mmHg 75%
    02:00 +14°C° 0 mm 2 m/S 541 mmHg 76%
    03:00 +14°C° 0 mm 1 m/S 541 mmHg 78%
    04:00 +14°C° 0 mm 1 m/S 541 mmHg 79%
    05:00 +13°C° 0 mm 1 m/S 541 mmHg 81%
    06:00 +14°C° 0 mm 1 m/S 541 mmHg 80%
    07:00 +14°C° 0 mm 1 m/S 542 mmHg 79%
    08:00 +14°C° 0 mm 1 m/S 542 mmHg 77%
    09:00 +16°C° 0 mm 1 m/S 543 mmHg 71%
    10:00 +18°C° 0 mm 1 m/S 543 mmHg 64%
    11:00 +19°C° 0 mm 2 m/S 544 mmHg 57%
    12:00 +20°C° 0.1 mm 2 m/S 544 mmHg 51%
    13:00 +21°C° 0.1 mm 3 m/S 544 mmHg 44%
    14:00 +22°C° 0.1 mm 4 m/S 544 mmHg 38%
    15:00 +22°C° 0 mm 5 m/S 544 mmHg 39%
    16:00 +22°C° 0 mm 6 m/S 543 mmHg 41%
    17:00 +21°C° 0 mm 7 m/S 543 mmHg 42%
    18:00 +20°C° 0 mm 5 m/S 542 mmHg 46%
    19:00 +18°C° 0 mm 4 m/S 542 mmHg 51%
    20:00 +17°C° 0 mm 2 m/S 542 mmHg 55%
    21:00 +16°C° 0 mm 2 m/S 542 mmHg 56%
    22:00 +15°C° 0 mm 2 m/S 542 mmHg 56%
    23:00 +15°C° 0 mm 1 m/S 543 mmHg 57%

    übermorgen, 25 Januar, Samstag

    Zeit Temperatur Niederschläge Wind Luftdruck Luftfeuchtigkeit
    00:00 +14°C° 0 mm 1 m/S 542 mmHg 60%
    01:00 +14°C° 0 mm 1 m/S 542 mmHg 62%
    02:00 +13°C° 0 mm 1 m/S 541 mmHg 65%
    03:00 +13°C° 0 mm 1 m/S 541 mmHg 68%
    04:00 +12°C° 0 mm 1 m/S 541 mmHg 71%
    05:00 +11°C° 0 mm 0 m/S 540 mmHg 74%
    06:00 +11°C° 0 mm 0 m/S 541 mmHg 70%
    07:00 +12°C° 0 mm 0 m/S 542 mmHg 66%
    08:00 +13°C° 0 mm 0 m/S 542 mmHg 62%
    09:00 +16°C° 0 mm 1 m/S 543 mmHg 56%
    10:00 +19°C° 0 mm 1 m/S 544 mmHg 50%
    11:00 +19°C° 0 mm 2 m/S 544 mmHg 44%
    12:00 +20°C° 0 mm 2 m/S 544 mmHg 41%
    13:00 +21°C° 0 mm 3 m/S 544 mmHg 37%
    14:00 +24°C° 0 mm 3 m/S 544 mmHg 34%
    15:00 +22°C° 0 mm 4 m/S 544 mmHg 36%
    16:00 +22°C° 0 mm 5 m/S 543 mmHg 38%
    17:00 +22°C° 0 mm 6 m/S 543 mmHg 41%
    18:00 +20°C° 0 mm 5 m/S 543 mmHg 45%
    19:00 +19°C° 0 mm 4 m/S 542 mmHg 49%
    20:00 +17°C° 0 mm 3 m/S 542 mmHg 53%
    21:00 +16°C° 0 mm 2 m/S 542 mmHg 54%
    22:00 +16°C° 0 mm 2 m/S 542 mmHg 56%
    23:00 +15°C° 0 mm 1 m/S 543 mmHg 57%

    26 Januar, Sonntag

    Zeit Temperatur Niederschläge Wind Luftdruck Luftfeuchtigkeit
    00:00 +15°C° 0 mm 1 m/S 542 mmHg 59%
    01:00 +14°C° 0 mm 1 m/S 542 mmHg 60%
    02:00 +14°C° 0 mm 1 m/S 541 mmHg 62%
    03:00 +14°C° 0 mm 1 m/S 541 mmHg 63%
    04:00 +12°C° 0 mm 0 m/S 541 mmHg 64%
    05:00 +12°C° 0 mm 0 m/S 541 mmHg 66%
    06:00 +13°C° 0 mm 0 m/S 542 mmHg 61%
    07:00 +14°C° 0 mm 0 m/S 542 mmHg 56%
    08:00 +15°C° 0 mm 0 m/S 543 mmHg 51%
    09:00 +18°C° 0 mm 1 m/S 543 mmHg 48%
    10:00 +18°C° 0 mm 2 m/S 544 mmHg 46%
    11:00 +20°C° 0 mm 2 m/S 544 mmHg 43%
    12:00 +21°C° 0 mm 3 m/S 544 mmHg 41%
    13:00 +22°C° 0 mm 4 m/S 544 mmHg 38%
    14:00 +22°C° 0 mm 4 m/S 544 mmHg 36%
    15:00 +22°C° 0 mm 4 m/S 544 mmHg 36%
    16:00 +22°C° 0 mm 4 m/S 543 mmHg 36%
    17:00 +22°C° 0 mm 4 m/S 543 mmHg 36%
    18:00 +21°C° 0 mm 4 m/S 543 mmHg 40%
    19:00 +19°C° 0 mm 3 m/S 542 mmHg 45%
    20:00 +18°C° 0 mm 3 m/S 542 mmHg 49%
    21:00 +17°C° 0 mm 2 m/S 542 mmHg 51%
    22:00 +17°C° 0 mm 2 m/S 543 mmHg 52%
    23:00 +16°C° 0 mm 1 m/S 543 mmHg 54%

    27 Januar, Montag

    Zeit Temperatur Niederschläge Wind Luftdruck Luftfeuchtigkeit
    00:00 +16°C° 0 mm 1 m/S 542 mmHg 56%
    01:00 +15°C° 0 mm 1 m/S 542 mmHg 58%
    02:00 +15°C° 0 mm 1 m/S 542 mmHg 60%
    03:00 +15°C° 0 mm 1 m/S 541 mmHg 62%
    04:00 +13°C° 0 mm 0 m/S 541 mmHg 64%
    05:00 +13°C° 0 mm 0 m/S 541 mmHg 66%
    06:00 +14°C° 0 mm 1 m/S 542 mmHg 62%
    07:00 +15°C° 0 mm 1 m/S 543 mmHg 58%
    08:00 +16°C° 0 mm 1 m/S 544 mmHg 53%
    09:00 +18°C° 0 mm 1 m/S 544 mmHg 53%
    10:00 +17°C° 0 mm 2 m/S 544 mmHg 52%
    11:00 +18°C° 0 mm 2 m/S 545 mmHg 52%
    12:00 +18°C° 0.4 mm 3 m/S 544 mmHg 54%
    13:00 +18°C° 0.4 mm 3 m/S 543 mmHg 57%
    14:00 +18°C° 0.4 mm 4 m/S 543 mmHg 60%
    15:00 +18°C° 0.7 mm 4 m/S 542 mmHg 63%
    16:00 +17°C° 0.7 mm 3 m/S 542 mmHg 65%
    17:00 +17°C° 0.7 mm 3 m/S 541 mmHg 68%
    18:00 +16°C° 0.3 mm 2 m/S 542 mmHg 70%
    19:00 +16°C° 0.3 mm 2 m/S 542 mmHg 71%
    20:00 +15°C° 0.3 mm 2 m/S 542 mmHg 73%
    21:00 +15°C° 0.1 mm 2 m/S 542 mmHg 74%
    22:00 +15°C° 0.1 mm 1 m/S 543 mmHg 76%
    23:00 +14°C° 0.1 mm 1 m/S 543 mmHg 78%

    28 Januar, Dienstag

    Zeit Temperatur Niederschläge Wind Luftdruck Luftfeuchtigkeit
    00:00 +14°C° 0.1 mm 1 m/S 542 mmHg 79%
    01:00 +14°C° 0.1 mm 1 m/S 542 mmHg 80%
    02:00 +14°C° 0.1 mm 1 m/S 542 mmHg 80%
    03:00 +14°C° 0.1 mm 1 m/S 542 mmHg 82%
    04:00 +14°C° 0.1 mm 1 m/S 541 mmHg 84%
    05:00 +13°C° 0.1 mm 1 m/S 541 mmHg 86%
    06:00 +13°C° 0.5 mm 1 m/S 541 mmHg 85%
    07:00 +14°C° 0.5 mm 1 m/S 542 mmHg 84%
    08:00 +14°C° 0.5 mm 1 m/S 542 mmHg 83%
    09:00 +15°C° 0.5 mm 2 m/S 542 mmHg 79%
    10:00 +15°C° 0.5 mm 2 m/S 543 mmHg 74%
    11:00 +16°C° 0.5 mm 3 m/S 543 mmHg 70%
    12:00 +17°C° 0.1 mm 3 m/S 542 mmHg 66%
    13:00 +18°C° 0.1 mm 3 m/S 542 mmHg 61%
    14:00 +20°C° 0.1 mm 3 m/S 542 mmHg 56%
    15:00 +19°C° 0.2 mm 4 m/S 542 mmHg 58%
    16:00 +19°C° 0.2 mm 4 m/S 541 mmHg 60%
    17:00 +19°C° 0.2 mm 4 m/S 541 mmHg 62%
    18:00 +18°C° 0.8 mm 3 m/S 540 mmHg 67%
    19:00 +17°C° 0.8 mm 2 m/S 540 mmHg 72%
    20:00 +16°C° 0.8 mm 1 m/S 540 mmHg 78%
    21:00 +16°C° 0.2 mm 1 m/S 540 mmHg 79%
    22:00 +16°C° 0.2 mm 1 m/S 540 mmHg 79%
    23:00 +16°C° 0.2 mm 1 m/S 541 mmHg 80%
    Mehr zeigen